• In Spain
  • List of Countries
  • For 7 days
  • Water Temperature
  • Satellite Maps
  • Weather Map
  • Weather Widgets
  • user-avatar
    Login

    Hourly Weather Haradok

    Today, 20 August, Monday

    Time Temperature Precipitation Wind Pressure Humidity
    00:00 +16°C° 0 mm 2 mps 750 mmHg 91%
    01:00 +16°C° 0 mm 2 mps 750 mmHg 92%
    02:00 +16°C° 0 mm 2 mps 749 mmHg 91%
    03:00 +16°C° 0 mm 2 mps 749 mmHg 91%
    04:00 +16°C° 0 mm 2 mps 749 mmHg 91%
    05:00 +16°C° 0 mm 2 mps 749 mmHg 91%
    06:00 +17°C° 0 mm 2 mps 749 mmHg 85%
    07:00 +19°C° 0 mm 2 mps 749 mmHg 80%
    08:00 +20°C° 0 mm 3 mps 749 mmHg 73%
    09:00 +21°C° 0 mm 3 mps 749 mmHg 68%
    10:00 +24°C° 0 mm 3 mps 748 mmHg 63%
    11:00 +25°C° 0 mm 3 mps 748 mmHg 58%
    12:00 +26°C° 0 mm 3 mps 748 mmHg 57%
    13:00 +26°C° 0 mm 3 mps 748 mmHg 56%
    14:00 +27°C° 0 mm 3 mps 747 mmHg 55%
    15:00 +26°C° 0.5 mm 3 mps 747 mmHg 62%
    16:00 +25°C° 0.5 mm 3 mps 746 mmHg 68%
    17:00 +24°C° 0.5 mm 3 mps 746 mmHg 74%
    18:00 +22°C° 0.2 mm 3 mps 745 mmHg 79%
    19:00 +21°C° 0.2 mm 3 mps 745 mmHg 84%
    20:00 +20°C° 0.2 mm 3 mps 744 mmHg 89%
    21:00 +19°C° 0.1 mm 3 mps 744 mmHg 90%
    22:00 +19°C° 0.1 mm 4 mps 743 mmHg 91%
    23:00 +19°C° 0.1 mm 4 mps 743 mmHg 92%

    Tomorrow, 21 August, Tuesday

    Time Temperature Precipitation Wind Pressure Humidity
    00:00 +19°C° 0.4 mm 4 mps 743 mmHg 93%
    01:00 +18°C° 0.4 mm 4 mps 742 mmHg 94%
    02:00 +18°C° 0.4 mm 4 mps 742 mmHg 94%
    03:00 +18°C° 0 mm 4 mps 742 mmHg 94%
    04:00 +17°C° 0 mm 4 mps 742 mmHg 95%
    05:00 +17°C° 0 mm 4 mps 742 mmHg 95%
    06:00 +17°C° 0.1 mm 4 mps 742 mmHg 92%
    07:00 +17°C° 0.1 mm 5 mps 743 mmHg 89%
    08:00 +17°C° 0.1 mm 5 mps 743 mmHg 86%
    09:00 +19°C° 0.1 mm 5 mps 743 mmHg 77%
    10:00 +20°C° 0.1 mm 5 mps 744 mmHg 69%
    11:00 +21°C° 0.1 mm 6 mps 744 mmHg 60%
    12:00 +21°C° 0 mm 6 mps 744 mmHg 57%
    13:00 +21°C° 0 mm 6 mps 745 mmHg 54%
    14:00 +22°C° 0 mm 6 mps 745 mmHg 51%
    15:00 +21°C° 0.1 mm 5 mps 745 mmHg 54%
    16:00 +20°C° 0.1 mm 5 mps 745 mmHg 57%
    17:00 +20°C° 0.1 mm 4 mps 746 mmHg 60%
    18:00 +18°C° 0 mm 4 mps 746 mmHg 65%
    19:00 +17°C° 0 mm 3 mps 746 mmHg 70%
    20:00 +14°C° 0 mm 3 mps 747 mmHg 74%
    21:00 +13°C° 0 mm 3 mps 747 mmHg 75%
    22:00 +13°C° 0 mm 3 mps 748 mmHg 76%
    23:00 +12°C° 0 mm 3 mps 748 mmHg 77%

    Day after tomorrow, 22 August, Wednesday

    Time Temperature Precipitation Wind Pressure Humidity
    00:00 +12°C° 0 mm 3 mps 749 mmHg 79%
    01:00 +11°C° 0 mm 3 mps 749 mmHg 80%
    02:00 +10°C° 0 mm 3 mps 750 mmHg 81%
    03:00 +10°C° 0 mm 3 mps 750 mmHg 83%
    04:00 +9°C° 0 mm 3 mps 750 mmHg 85%
    05:00 +8°C° 0 mm 3 mps 751 mmHg 87%
    06:00 +10°C° 0 mm 3 mps 751 mmHg 81%
    07:00 +11°C° 0 mm 4 mps 751 mmHg 74%
    08:00 +12°C° 0 mm 4 mps 752 mmHg 68%
    09:00 +14°C° 0 mm 4 mps 752 mmHg 61%
    10:00 +15°C° 0 mm 4 mps 752 mmHg 55%
    11:00 +18°C° 0 mm 4 mps 753 mmHg 49%
    12:00 +18°C° 0 mm 4 mps 753 mmHg 48%
    13:00 +19°C° 0 mm 4 mps 753 mmHg 46%
    14:00 +19°C° 0 mm 4 mps 753 mmHg 44%
    15:00 +19°C° 0 mm 3 mps 753 mmHg 46%
    16:00 +19°C° 0 mm 3 mps 753 mmHg 48%
    17:00 +19°C° 0 mm 3 mps 753 mmHg 49%
    18:00 +17°C° 0 mm 2 mps 753 mmHg 56%
    19:00 +15°C° 0 mm 2 mps 753 mmHg 63%
    20:00 +13°C° 0 mm 1 mps 754 mmHg 69%
    21:00 +12°C° 0 mm 1 mps 754 mmHg 72%
    22:00 +12°C° 0 mm 1 mps 754 mmHg 74%
    23:00 +10°C° 0 mm 0 mps 754 mmHg 77%

    23 August, Thursday

    Time Temperature Precipitation Wind Pressure Humidity
    00:00 +10°C° 0 mm 0 mps 754 mmHg 78%
    01:00 +10°C° 0 mm 1 mps 754 mmHg 79%
    02:00 +10°C° 0 mm 1 mps 754 mmHg 81%
    03:00 +10°C° 0 mm 1 mps 754 mmHg 82%
    04:00 +10°C° 0 mm 1 mps 754 mmHg 84%
    05:00 +9°C° 0 mm 1 mps 754 mmHg 85%
    06:00 +11°C° 0 mm 1 mps 754 mmHg 79%
    07:00 +13°C° 0 mm 2 mps 754 mmHg 73%
    08:00 +15°C° 0 mm 2 mps 754 mmHg 66%
    09:00 +17°C° 0 mm 2 mps 754 mmHg 61%
    10:00 +18°C° 0 mm 3 mps 754 mmHg 55%
    11:00 +20°C° 0 mm 3 mps 754 mmHg 49%
    12:00 +20°C° 0 mm 3 mps 753 mmHg 48%
    13:00 +21°C° 0 mm 3 mps 753 mmHg 47%
    14:00 +21°C° 0 mm 3 mps 753 mmHg 46%
    15:00 +21°C° 0 mm 3 mps 753 mmHg 49%
    16:00 +21°C° 0 mm 3 mps 752 mmHg 51%
    17:00 +21°C° 0 mm 3 mps 752 mmHg 54%
    18:00 +19°C° 0 mm 3 mps 752 mmHg 61%
    19:00 +17°C° 0 mm 3 mps 752 mmHg 69%
    20:00 +15°C° 0 mm 2 mps 752 mmHg 76%
    21:00 +13°C° 0 mm 3 mps 751 mmHg 78%
    22:00 +12°C° 0 mm 3 mps 751 mmHg 79%
    23:00 +12°C° 0 mm 3 mps 751 mmHg 80%

    24 August, Friday

    Time Temperature Precipitation Wind Pressure Humidity
    00:00 +11°C° 0 mm 3 mps 751 mmHg 81%
    01:00 +11°C° 0 mm 3 mps 751 mmHg 81%
    02:00 +11°C° 0 mm 3 mps 751 mmHg 82%
    03:00 +11°C° 0 mm 3 mps 750 mmHg 81%
    04:00 +11°C° 0 mm 3 mps 750 mmHg 81%
    05:00 +11°C° 0 mm 3 mps 750 mmHg 81%
    06:00 +12°C° 0 mm 3 mps 750 mmHg 76%
    07:00 +14°C° 0 mm 4 mps 749 mmHg 71%
    08:00 +17°C° 0 mm 4 mps 749 mmHg 66%
    09:00 +18°C° 0 mm 4 mps 749 mmHg 60%
    10:00 +20°C° 0 mm 5 mps 749 mmHg 55%
    11:00 +22°C° 0 mm 5 mps 749 mmHg 50%
    12:00 +23°C° 0 mm 5 mps 748 mmHg 50%
    13:00 +23°C° 0 mm 5 mps 748 mmHg 50%
    14:00 +25°C° 0 mm 5 mps 748 mmHg 51%
    15:00 +23°C° 0 mm 5 mps 747 mmHg 53%
    16:00 +23°C° 0 mm 5 mps 747 mmHg 56%
    17:00 +23°C° 0 mm 5 mps 746 mmHg 58%
    18:00 +22°C° 0 mm 5 mps 746 mmHg 61%
    19:00 +20°C° 0 mm 5 mps 746 mmHg 64%
    20:00 +19°C° 0 mm 4 mps 746 mmHg 66%
    21:00 +19°C° 0 mm 5 mps 745 mmHg 66%
    22:00 +19°C° 0 mm 5 mps 745 mmHg 65%
    23:00 +17°C° 0 mm 5 mps 745 mmHg 64%

    25 August, Saturday

    Time Temperature Precipitation Wind Pressure Humidity
    00:00 +17°C° 0 mm 5 mps 745 mmHg 65%
    01:00 +17°C° 0 mm 5 mps 744 mmHg 65%
    02:00 +17°C° 0 mm 5 mps 744 mmHg 65%
    03:00 +17°C° 0 mm 4 mps 744 mmHg 65%
    04:00 +17°C° 0 mm 4 mps 744 mmHg 65%
    05:00 +15°C° 0 mm 4 mps 744 mmHg 66%
    06:00 +16°C° 0 mm 5 mps 744 mmHg 64%
    07:00 +17°C° 0 mm 5 mps 743 mmHg 62%
    08:00 +19°C° 0 mm 5 mps 743 mmHg 61%
    09:00 +20°C° 0.2 mm 5 mps 743 mmHg 60%
    10:00 +21°C° 0.2 mm 5 mps 743 mmHg 59%
    11:00 +22°C° 0.2 mm 5 mps 743 mmHg 58%
    12:00 +22°C° 0.4 mm 4 mps 743 mmHg 61%
    13:00 +22°C° 0.4 mm 4 mps 743 mmHg 65%
    14:00 +22°C° 0.4 mm 3 mps 743 mmHg 68%
    15:00 +21°C° 0.7 mm 3 mps 743 mmHg 73%
    16:00 +20°C° 0.7 mm 3 mps 743 mmHg 79%
    17:00 +18°C° 0.7 mm 3 mps 743 mmHg 84%
    18:00 +17°C° 1.2 mm 3 mps 743 mmHg 88%
    19:00 +16°C° 1.2 mm 2 mps 743 mmHg 92%
    20:00 +15°C° 1.2 mm 2 mps 744 mmHg 96%
    21:00 +15°C° 0.7 mm 2 mps 744 mmHg 96%
    22:00 +14°C° 0.7 mm 2 mps 744 mmHg 96%
    23:00 +14°C° 0.7 mm 2 mps 744 mmHg 96%
    Show more